Regional Weather Roundup
Issued by NWS Cleveland, OH

Home | Current Version | Previous Version | Graphics & Text | Print | Product List | Glossary On
Versions: 1 2 3 4 5 6 7 8 9 10 11 12 13 14 15 16 17 18 19 20 21 22 23 24 25 26 27 28 29 30 31 32 33 34 35 36 37 38 39 40 41 42 43 44 45 46 47 48 49 50
000
ASUS41 KCLE 280510
RWRCLE
OHIO REGIONAL WEATHER ROUNDUP
NATIONAL WEATHER SERVICE CLEVELAND, OH
100 AM EDT SAT MAR 28 2015

NOTE: "FAIR" INDICATES FEW OR NO CLOUDS BELOW 12,000 FEET WITH NO
SIGNIFICANT WEATHER AND/OR OBSTRUCTIONS TO VISIBILITY.

OHZ001>008-015>018-024>027-034-035-043-044-280600-
   NORTHWEST OHIO

CITY           SKY/WX    TMP DP  RH WIND       PRES   REMARKS
DEFIANCE       CLEAR     20  11  68 N3        30.15S
FINDLAY        CLEAR     21  16  81 NE7       30.12R WCI  12
TOLEDO EXPRESS CLEAR     19   9  65 NE8       30.15R WCI   9
TOLEDO EXEC    PTCLDY    21  11  65 NE6       30.16R WCI  13
LIMA           CLEAR     23  14  68 N3        30.11R
$$

OHZ009>014-019>023-028>033-038-089-280600-
   NORTHEAST OHIO

CITY           SKY/WX    TMP DP  RH WIND       PRES   REMARKS
CLE-HOPKINS    PTCLDY    18   8  65 N15       30.14S WCI   4
CLE-LAKEFRONT  MOCLDY    19  10  68 N14       30.12S WCI   6
CUY CO. ARPT   NOT AVBL
LORAIN-ELYRIA  PTCLDY    16   8  71 NE9       30.12S WCI   4
ASHTABULA      LGT SNOW  16   9  74 NW9       30.07F WCI   4
AKRON-CANTON   PTCLDY    18   6  59 N10       30.05S WCI   6
WOOSTER        MOCLDY    17  10  74 N8        30.08S WCI   7
MANSFIELD      MOCLDY    16  13  88 N7        30.07S WCI   6
YOUNGSTOWN     FLURRIES  17   9  70 NW12      30.03F WCI   4
$$

OHZ042-051>053-060>062-070>072-077>081-280600-
  SOUTHWEST OHIO

CITY           SKY/WX    TMP DP  RH WIND       PRES   REMARKS
CINC-COVINGTON CLOUDY    27  11  51 NW14      30.11S WCI  16
CINC-LUNKEN    CLOUDY    28  11  48 N10       30.14S WCI  19
HAMILTON       MOCLDY    26  13  57 NW10      30.14R WCI  16
DAYTON         MOCLDY    25  15  66 NW7       30.12R WCI  17
WRIGHT-PAT AFB PTCLDY    24  14  66 N6        30.11R WCI  16
DAYTON GENERAL CLOUDY    25  16  68 NW14      30.10R WCI  13
WILMINGTON     MOCLDY    22  15  75 NE7       30.08S WCI  13
$$

OHZ036-037-039>041-045>050-054>059-063>069-073>076-082>088-280600-
  CENTRAL AND SOUTHEAST OHIO

CITY           SKY/WX    TMP DP  RH WIND       PRES   REMARKS
COLUMBUS       PTCLDY    22  16  78 N10       30.09S WCI  11
OSU AIRPORT    CLEAR     20  15  81 N7        30.09S WCI  11
BOLTON FIELD   PTCLDY   N/A N/A N/A NW6       30.10S
RICKENBACK AFB PTCLDY    23  15  74 N13       30.09S WCI  11
NEWARK         MOCLDY    21  14  74 N6        30.08R WCI  13
MARION         CLEAR     16  13  88 NE8       30.10S WCI   5
LANCASTER      PTCLDY    24  16  71 NW9       30.09R WCI  14
ZANESVILLE     CLOUDY    22  14  71 N9        30.07R WCI  12
NEW PHILLY     CLOUDY    23  11  60 NW10      30.08R WCI  12
$$


USA.gov is the U.S. government's official web portal to all federal, state and local government web resources and services.